DW5785 Weather Reports


Display with metric or nautical units.
time (UTC)temp
F
wind
direction
speed
MPH
gust
MPH
rain 1hr
in
rain 24hr
in
rain mn
in
humidity
%
barometer
mb
20260510045011 45 119 1.0 4.0 0.00 0.00 0.00 87 1016.7
20260510044511 45 37 1.0 4.0 0.00 0.00 0.00 86 1016.7
20260510044011 45 37 2.0 4.0 0.00 0.00 0.00 86 1016.7
20260510043515 45 37 2.0 2.0 0.00 0.00 0.00 86 1016.8
20260510043014 45 37 2.0 4.0 0.00 0.00 0.00 86 1016.7
20260510042511 46 18 4.0 5.0 0.00 0.00 0.00 86 1016.6
20260510042014 46 9 0.0 3.0 0.00 0.00 0.00 86 1016.7
20260510041511 45 35 2.0 2.0 0.00 0.00 0.00 86 1016.9
20260510041017 45 35 0.0 2.0 0.00 0.00 0.00 86 1016.9
20260510040515 45 35 0.0 0.0 0.00 0.00 0.00 86 1016.9
20260510040011 45 35 0.0 0.0 0.00 0.00 0.00 86 1016.9
20260510035514 45 35 0.0 0.0 0.00 0.00 0.00 87 1016.9
20260510035014 45 35 0.0 0.0 0.00 0.00 0.00 87 1016.9
20260510034517 45 35 0.0 2.0 0.00 0.00 0.00 87 1016.9
20260510034011 45 35 1.0 2.0 0.00 0.00 0.00 87 1016.8
20260510033515 45 35 1.0 2.0 0.00 0.00 0.00 87 1016.7
20260510033011 45 35 1.0 4.0 0.00 0.00 0.00 87 1016.6
20260510032514 45 33 2.0 4.0 0.00 0.00 0.00 87 1016.7
20260510032020 45 351 1.0 2.0 0.00 0.00 0.00 87 1016.7
20260510031517 45 351 0.0 2.0 0.00 0.00 0.00 87 1016.7
20260510031011 45 351 0.0 2.0 0.00 0.00 0.00 86 1016.9
20260510030515 45 341 1.0 3.0 0.00 0.00 0.00 86 1016.8
20260510030011 45 329 1.0 2.0 0.00 0.00 0.00 86 1016.8
20260510025514 45 329 0.0 0.0 0.00 0.00 0.00 86 1016.9
20260510025014 45 329 0.0 0.0 0.00 0.00 0.00 86 1017.0
20260510024520 45 329 0.0 2.0 0.00 0.00 0.00 86 1017.0
20260510024011 46 329 0.0 3.0 0.00 0.00 0.00 85 1017.0
20260510023512 46 319 2.0 4.0 0.00 0.00 0.00 85 1016.9
20260510023014 46 325 1.0 3.0 0.00 0.00 0.00 85 1017.1
20260510022511 46 326 1.0 3.0 0.00 0.00 0.00 85 1017.2
20260510022014 46 326 0.0 3.0 0.00 0.00 0.00 85 1017.3
20260510021511 46 326 2.0 4.0 0.00 0.00 0.00 84 1017.3
20260510021017 46 326 2.0 3.0 0.00 0.00 0.00 84 1017.5
20260510020515 47 326 2.0 4.0 0.00 0.00 0.00 84 1017.5
20260510020014 47 326 2.0 3.0 0.00 0.00 0.00 83 1017.5
20260510015511 47 325 2.0 3.0 0.00 0.00 0.00 83 1017.5
20260510015011 47 326 1.0 4.0 0.00 0.00 0.00 82 1017.6
20260510014510 47 331 3.0 5.0 0.00 0.00 0.00 82 1017.6
20260510014010 47 303 2.0 3.0 0.00 0.00 0.00 82 1017.7
20260510013515 48 303 2.0 3.0 0.00 0.00 0.00 82 1017.6
20260510013014 48 304 1.0 3.0 0.00 0.00 0.00 81 1017.7
20260510012511 48 308 2.0 3.0 0.00 0.00 0.00 81 1017.7
20260510012013 48 324 3.0 4.0 0.00 0.00 0.00 81 1017.8
20260510011511 48 326 2.0 3.0 0.00 0.00 0.00 80 1017.7
20260510011011 48 326 2.0 3.0 0.00 0.00 0.00 80 1017.7
20260510010515 48 326 2.0 3.0 0.00 0.00 0.00 80 1017.9
20260510010017 48 326 2.0 3.0 0.00 0.00 0.00 80 1017.9
20260510005517 49 312 3.0 4.0 0.00 0.00 0.00 80 1017.9
20260510005014 49 316 2.0 4.0 0.00 0.00 0.00 79 1017.9
20260510004514 49 308 3.0 4.0 0.00 0.00 0.00 79 1018.0
20260510004015 49 296 4.0 4.0 0.00 0.00 0.00 78 1018.1
20260510003520 49 19 0.0 1.0 0.00 0.00 0.00 77 1018.2
20260510003011 49 19 0.0 2.0 0.00 0.00 0.00 77 1018.3
20260510002514 50 19 2.0 2.0 0.00 0.00 0.00 76 1018.3
20260510002011 50 19 2.0 2.0 0.00 0.00 0.00 75 1018.4
20260510001511 50 19 1.0 1.0 0.00 0.00 0.00 75 1018.5
20260510001015 50 19 1.0 4.0 0.00 0.00 0.00 75 1018.6
20260510000514 50 9 2.0 4.0 0.00 0.00 0.00 75 1018.6
20260510000011 50 11 1.0 3.0 0.00 0.00 0.00 75 1018.7
20260509235511 50 349 1.0 2.0 0.00 0.00 0.00 75 1018.7
20260509235017 50 349 1.0 2.0 0.00 0.00 0.00 74 1018.8
20260509234514 50 349 0.0 1.0 0.00 0.00 0.00 75 1018.8
20260509234012 50 349 0.0 2.0 0.00 0.00 0.00 75 1018.8
20260509233511 50 349 0.0 2.0 0.00 0.00 0.00 75 1018.8
20260509233011 50 349 0.0 1.0 0.00 0.00 0.00 75 1019.0
20260509232517 50 349 0.0 4.0 0.00 0.00 0.00 74 1018.9
20260509232011 50 350 2.0 4.0 0.00 0.00 0.00 74 1018.9
20260509231514 51 0 3.0 4.0 0.00 0.00 0.00 74 1018.9
20260509231012 51 3 2.0 4.0 0.00 0.00 0.00 74 1019.0
20260509230511 51 11 2.0 3.0 0.00 0.00 0.00 74 1019.1
20260509230011 51 11 0.0 5.0 0.00 0.00 0.00 74 1019.2
20260509225514 51 12 2.0 4.0 0.00 0.00 0.00 73 1019.1
20260509225014 51 42 2.0 5.0 0.00 0.00 0.00 73 1019.2
20260509224520 51 32 2.0 6.0 0.00 0.00 0.00 73 1019.2
20260509224012 51 23 1.0 7.0 0.00 0.00 0.00 72 1019.3
20260509223511 51 10 5.0 7.0 0.00 0.00 0.00 72 1019.3
20260509223011 52 15 5.0 7.0 0.00 0.00 0.00 72 1019.3
20260509222511 52 41 2.0 5.0 0.00 0.00 0.00 71 1019.3
20260509222017 52 53 5.0 7.0 0.00 0.00 0.00 71 1019.3
20260509221511 52 29 5.0 9.0 0.00 0.00 0.00 72 1019.3
20260509221018 52 337 1.0 8.0 0.00 0.00 0.00 72 1019.3
20260509220511 52 55 1.0 6.0 0.00 0.00 0.00 72 1019.3
20260509220020 52 12 4.0 7.0 0.00 0.00 0.00 72 1019.4
20260509215510 52 13 4.0 9.0 0.00 0.00 0.00 71 1019.4
20260509215018 52 17 5.0 8.0 0.00 0.00 0.00 72 1019.5
20260509214516 52 25 5.0 8.0 0.00 0.00 0.00 72 1019.5
20260509214011 52 46 4.0 5.0 0.00 0.00 0.00 71 1019.6
20260509213513 53 52 1.0 5.0 0.00 0.00 0.00 71 1019.6
20260509213017 53 30 4.0 8.0 0.00 0.00 0.00 71 1019.7
20260509212513 53 37 2.0 11.0 0.00 0.00 0.00 71 1019.6
20260509212012 52 29 4.0 9.0 0.00 0.00 0.00 72 1019.6
20260509211511 52 9 4.0 7.0 0.00 0.00 0.00 73 1019.6
20260509211013 52 37 6.0 7.0 0.00 0.00 0.00 73 1019.7
20260509210510 52 44 4.0 5.0 0.00 0.00 0.00 73 1019.7
20260509210012 53 46 4.0 6.0 0.00 0.00 0.00 73 1019.7
20260509205514 53 60 7.0 7.0 0.00 0.00 0.00 72 1019.8
20260509205014 53 47 6.0 8.0 0.00 0.00 0.00 72 1019.8
20260509204511 53 17 2.0 5.0 0.00 0.00 0.00 72 1019.7
20260509204013 53 15 1.0 6.0 0.00 0.00 0.00 71 1019.7
20260509203514 53 30 2.0 9.0 0.00 0.00 0.00 71 1019.7
20260509203015 53 353 4.0 11.0 0.00 0.00 0.00 71 1019.7
20260509202517 54 9 5.0 8.0 0.00 0.00 0.00 71 1019.7
20260509202011 54 338 3.0 8.0 0.00 0.00 0.00 70 1019.7
20260509201517 54 355 3.0 7.0 0.00 0.00 0.00 70 1019.7
20260509201014 54 353 3.0 7.0 0.00 0.00 0.00 69 1019.7
20260509200520 54 341 2.0 7.0 0.00 0.00 0.00 69 1019.7
20260509200015 54 9 1.0 11.0 0.00 0.00 0.00 69 1019.7
20260509195511 54 1 7.0 10.0 0.00 0.00 0.00 69 1019.6
20260509195011 54 336 6.0 12.0 0.00 0.00 0.00 69 1019.6
20260509194520 54 352 7.0 8.0 0.00 0.00 0.00 69 1019.6
20260509194011 55 319 3.0 8.0 0.00 0.00 0.00 68 1019.6
20260509193520 55 16 7.0 8.0 0.00 0.00 0.00 68 1019.5
20260509193012 55 337 5.0 7.0 0.00 0.00 0.00 67 1019.5
20260509192514 55 17 4.0 10.0 0.00 0.00 0.00 67 1019.5
20260509192011 55 3 4.0 11.0 0.00 0.00 0.00 67 1019.4
20260509191511 55 39 6.0 12.0 0.00 0.00 0.00 67 1019.4
20260509191011 55 356 8.0 12.0 0.00 0.00 0.00 67 1019.4
20260509190514 55 14 4.0 11.0 0.00 0.00 0.00 67 1019.3
20260509190012 55 4 4.0 9.0 0.00 0.00 0.00 67 1019.3
20260509185520 56 282 6.0 11.0 0.00 0.00 0.00 67 1019.3
20260509185011 56 19 7.0 13.0 0.00 0.00 0.00 66 1019.3
20260509184511 56 12 11.0 13.0 0.00 0.00 0.00 66 1019.2
20260509184012 56 331 8.0 13.0 0.00 0.00 0.00 66 1019.2
20260509183514 56 178 2.0 12.0 0.00 0.00 0.00 66 1019.1
20260509183011 56 66 4.0 14.0 0.00 0.00 0.00 66 1019.2
20260509182514 56 4 6.0 14.0 0.00 0.00 0.00 66 1019.1
20260509182018 57 323 6.0 13.0 0.00 0.00 0.00 65 1019.1
20260509181514 57 25 6.0 15.0 0.00 0.00 0.00 65 1019.1
20260509181011 57 62 6.0 14.0 0.00 0.00 0.00 64 1019.1
20260509180510 57 349 10.0 14.0 0.00 0.00 0.00 63 1019.2
20260509180010 57 32 4.0 12.0 0.00 0.00 0.00 62 1019.1
20260509175515 58 33 5.0 11.0 0.00 0.00 0.00 61 1019.1
20260509175010 58 27 5.0 12.0 0.00 0.00 0.00 61 1019.1
20260509174513 58 10 11.0 15.0 0.00 0.00 0.00 61 1019.1
20260509174013 58 8 7.0 14.0 0.00 0.00 0.00 61 1019.1
20260509173510 58 326 5.0 12.0 0.00 0.00 0.00 61 1019.1
20260509173012 58 103 3.0 13.0 0.00 0.00 0.00 60 1019.1
20260509172519 58 83 5.0 14.0 0.00 0.00 0.00 60 1019.0
20260509172013 59 341 7.0 14.0 0.00 0.00 0.00 60 1019.0
20260509171510 59 14 6.0 14.0 0.00 0.00 0.00 59 1019.0
20260509171010 59 327 8.0 11.0 0.00 0.00 0.00 59 1019.0
20260509170511 59 24 1.0 11.0 0.00 0.00 0.00 59 1019.0
20260509170018 59 351 10.0 10.0 0.00 0.00 0.00 59 1019.0
20260509165510 59 359 7.0 15.0 0.00 0.00 0.00 58 1019.0
20260509165014 60 358 7.0 13.0 0.00 0.00 0.00 58 1019.0
20260509164510 60 353 3.0 12.0 0.00 0.00 0.00 57 1019.0
20260509164010 60 323 4.0 12.0 0.00 0.00 0.00 57 1019.0
20260509163512 60 291 4.0 11.0 0.00 0.00 0.00 57 1018.9
20260509163010 60 346 3.0 10.0 0.00 0.00 0.00 57 1018.9
20260509162511 60 38 5.0 13.0 0.00 0.00 0.00 56 1018.9
20260509162011 61 99 5.0 12.0 0.00 0.00 0.00 57 1019.0
20260509161511 61 355 6.0 13.0 0.00 0.00 0.00 56 1019.1
20260509161011 61 340 4.0 6.0 0.00 0.00 0.00 56 1019.1
20260509160512 62 3 6.0 12.0 0.00 0.00 0.00 54 1019.1
20260509160017 62 256 1.0 7.0 0.00 0.00 0.00 55 1019.1
20260509155517 62 341 6.0 10.0 0.00 0.00 0.00 55 1019.1
20260509155010 61 325 3.0 6.0 0.00 0.00 0.00 56 1019.1
20260509154517 61 299 3.0 8.0 0.00 0.00 0.00 56 1019.1
20260509154011 61 4 1.0 8.0 0.00 0.00 0.00 56 1019.2
20260509153515 61 296 2.0 6.0 0.00 0.00 0.00 57 1019.2
20260509153014 61 266 2.0 7.0 0.00 0.00 0.00 56 1019.2
20260509152514 62 262 2.0 10.0 0.00 0.00 0.00 55 1019.2
20260509152013 62 337 4.0 8.0 0.00 0.00 0.00 55 1019.1
20260509151514 62 258 3.0 5.0 0.00 0.00 0.00 56 1019.1
20260509151011 61 326 5.0 6.0 0.00 0.00 0.00 56 1019.1
20260509150512 61 287 0.0 6.0 0.00 0.00 0.00 56 1019.1
20260509150015 61 277 6.0 8.0 0.00 0.00 0.00 58 1019.2
20260509145517 61 243 3.0 9.0 0.00 0.00 0.00 58 1019.2
20260509145014 60 310 4.0 5.0 0.00 0.00 0.00 58 1019.2
20260509144520 60 287 4.0 7.0 0.00 0.00 0.00 57 1019.2
20260509144011 60 237 4.0 6.0 0.00 0.00 0.00 56 1019.2
20260509143515 61 307 5.0 9.0 0.00 0.00 0.00 55 1019.2
20260509143014 62 8 2.0 7.0 0.00 0.00 0.00 55 1019.2
20260509142511 62 331 2.0 7.0 0.00 0.00 0.00 56 1019.2
20260509142014 62 346 2.0 10.0 0.00 0.00 0.00 55 1019.3
20260509141520 62 242 6.0 9.0 0.00 0.00 0.00 54 1019.3
20260509141011 63 262 4.0 8.0 0.00 0.00 0.00 53 1019.3
20260509140512 62 258 0.0 5.0 0.00 0.00 0.00 56 1019.3
20260509140010 61 24 4.0 7.0 0.00 0.00 0.00 56 1019.4
20260509135510 60 310 5.0 8.0 0.00 0.00 0.00 59 1019.5
20260509135010 59 300 5.0 5.0 0.00 0.00 0.00 59 1019.5
20260509134519 59 321 5.0 8.0 0.00 0.00 0.00 58 1019.5
20260509134013 61 316 5.0 8.0 0.00 0.00 0.00 57 1019.5
20260509133512 61 263 2.0 8.0 0.00 0.00 0.00 57 1019.5
20260509133014 60 343 5.0 5.0 0.00 0.00 0.00 58 1019.6
20260509132516 59 348 2.0 6.0 0.00 0.00 0.00 61 1019.6
20260509132010 59 356 5.0 8.0 0.00 0.00 0.00 59 1019.7
20260509131516 60 304 3.0 9.0 0.00 0.00 0.00 59 1019.7
20260509131016 61 317 4.0 8.0 0.00 0.00 0.00 58 1019.7
20260509130512 60 116 1.0 4.0 0.00 0.00 0.00 59 1019.7
20260509130013 60 318 2.0 8.0 0.00 0.00 0.00 59 1019.8
20260509125510 60 0 2.0 7.0 0.00 0.00 0.00 59 1019.8
20260509125013 60 100 1.0 7.0 0.00 0.00 0.00 60 1019.9
20260509124516 59 7 2.0 8.0 0.00 0.00 0.00 60 1019.9
20260509124013 60 294 5.0 6.0 0.00 0.00 0.00 60 1019.9
20260509123515 60 131 3.0 10.0 0.00 0.00 0.00 58 1020.0
20260509123013 61 258 2.0 6.0 0.00 0.00 0.00 58 1020.0
20260509122511 60 10 5.0 8.0 0.00 0.00 0.00 59 1020.0
20260509122010 60 277 3.0 11.0 0.00 0.00 0.00 60 1019.9
20260509121511 60 351 2.0 11.0 0.00 0.00 0.00 61 1019.9
20260509121015 59 295 3.0 10.0 0.00 0.00 0.00 62 1020.0
20260509120519 59 348 3.0 10.0 0.00 0.00 0.00 63 1020.1
20260509120014 59 261 5.0 10.0 0.00 0.00 0.00 63 1020.1
20260509115513 59 287 3.0 11.0 0.00 0.00 0.00 65 1020.2
20260509115013 58 198 2.0 11.0 0.00 0.00 0.00 66 1020.2
20260509114510 57 304 6.0 11.0 0.00 0.00 0.00 67 1020.2
20260509114012 57 317 8.0 10.0 0.00 0.00 0.00 66 1020.2
20260509113511 57 337 5.0 8.0 0.00 0.00 0.00 66 1020.3
20260509113014 57 298 5.0 9.0 0.00 0.00 0.00 66 1020.3
20260509112517 57 311 7.0 10.0 0.00 0.00 0.00 66 1020.3
20260509112013 58 291 5.0 10.0 0.00 0.00 0.00 65 1020.3
20260509111510 57 262 6.0 9.0 0.00 0.00 0.00 64 1020.3
20260509111018 58 301 8.0 8.0 0.00 0.00 0.00 64 1020.3
20260509110513 58 294 3.0 8.0 0.00 0.00 0.00 64 1020.4
20260509110011 58 302 5.0 8.0 0.00 0.00 0.00 64 1020.4
20260509105520 57 340 1.0 5.0 0.00 0.00 0.00 64 1020.5
20260509105020 58 315 4.0 5.0 0.00 0.00 0.00 63 1020.5
20260509104511 57 287 1.0 4.0 0.00 0.00 0.00 64 1020.4
20260509104021 57 354 4.0 4.0 0.00 0.00 0.00 63 1020.4
20260509103511 57 0 3.0 7.0 0.00 0.00 0.00 64 1020.4
20260509103014 57 337 2.0 10.0 0.00 0.00 0.00 64 1020.4
20260509102511 58 328 5.0 6.0 0.00 0.00 0.00 62 1020.4
20260509102011 58 350 1.0 6.0 0.00 0.00 0.00 61 1020.4
20260509101514 57 312 4.0 5.0 0.00 0.00 0.00 62 1020.5
20260509101012 57 85 4.0 9.0 0.00 0.00 0.00 61 1020.5
20260509100516 58 6 2.0 6.0 0.00 0.00 0.00 62 1020.4
20260509100017 58 9 2.0 7.0 0.00 0.00 0.00 62 1020.5
20260509095510 57 23 1.0 6.0 0.00 0.00 0.00 64 1020.5
20260509095012 57 12 1.0 4.0 0.00 0.00 0.00 64 1020.5
20260509094516 56 18 1.0 5.0 0.00 0.00 0.00 65 1020.5
20260509094016 56 67 4.0 8.0 0.00 0.00 0.00 66 1020.4
20260509093510 56 306 1.0 5.0 0.00 0.00 0.00 65 1020.4
20260509093010 56 316 4.0 5.0 0.00 0.00 0.00 66 1020.4
20260509092515 56 302 2.0 4.0 0.00 0.00 0.00 67 1020.4
20260509092016 56 348 1.0 6.0 0.00 0.00 0.00 68 1020.3
20260509091510 55 350 4.0 6.0 0.00 0.00 0.00 69 1020.3
20260509091010 55 199 0.0 4.0 0.00 0.00 0.00 69 1020.3
20260509090513 55 296 4.0 6.0 0.00 0.00 0.00 68 1020.4
20260509090010 55 263 2.0 5.0 0.00 0.00 0.00 67 1020.3
20260509085515 56 277 3.0 6.0 0.00 0.00 0.00 67 1020.4
20260509085011 56 277 2.0 5.0 0.00 0.00 0.00 67 1020.4
20260509084510 57 243 2.0 6.0 0.00 0.00 0.00 68 1020.4
20260509084010 56 299 4.0 6.0 0.00 0.00 0.00 70 1020.5
20260509083513 55 52 1.0 4.0 0.00 0.00 0.00 72 1020.4
20260509083019 55 349 2.0 5.0 0.00 0.00 0.00 73 1020.4
20260509082518 55 340 2.0 4.0 0.00 0.00 0.00 75 1020.5
20260509082019 54 320 2.0 3.0 0.00 0.00 0.00 75 1020.5
20260509081510 55 316 4.0 4.0 0.00 0.00 0.00 75 1020.4
20260509081013 55 346 1.0 5.0 0.00 0.00 0.00 75 1020.5
20260509080510 55 5 4.0 5.0 0.00 0.00 0.00 76 1020.5
20260509080011 55 19 4.0 6.0 0.00 0.00 0.00 76 1020.4
20260509075512 54 233 1.0 7.0 0.00 0.00 0.00 78 1020.4
20260509075010 54 331 3.0 6.0 0.00 0.00 0.00 76 1020.5
20260509074517 55 331 6.0 13.0 0.00 0.00 0.00 76 1020.5
20260509074013 54 337 1.0 6.0 0.00 0.00 0.00 77 1020.5
20260509073511 54 58 5.0 7.0 0.00 0.00 0.00 78 1020.5
20260509073013 53 306 1.0 5.0 0.00 0.00 0.00 80 1020.5
20260509072512 53 353 4.0 8.0 0.00 0.00 0.00 79 1020.5
20260509072010 53 314 4.0 7.0 0.00 0.00 0.00 80 1020.5
20260509071510 53 358 3.0 6.0 0.00 0.00 0.00 81 1020.5
20260509071017 52 318 5.0 7.0 0.00 0.00 0.00 80 1020.4
20260509070516 52 328 3.0 7.0 0.00 0.00 0.00 81 1020.4
20260509070010 52 335 4.0 8.0 0.00 0.00 0.00 82 1020.4
20260509065515 52 350 4.0 8.0 0.00 0.00 0.00 83 1020.4
20260509065013 51 12 4.0 6.0 0.00 0.00 0.00 83 1020.3
20260509064511 51 343 3.0 9.0 0.00 0.00 0.00 83 1020.3
20260509064010 51 311 3.0 7.0 0.00 0.00 0.00 85 1020.3
20260509063517 50 33 2.0 7.0 0.00 0.00 0.00 85 1020.3
20260509063017 50 308 3.0 6.0 0.00 0.00 0.00 86 1020.2
20260509062512 50 303 4.0 7.0 0.00 0.00 0.00 86 1020.2
20260509062020 49 316 4.0 8.0 0.00 0.00 0.00 87 1020.2
20260509061511 49 322 2.0 6.0 0.00 0.00 0.00 87 1020.2
20260509061017 49 312 7.0 7.0 0.00 0.00 0.00 88 1020.1
20260509060513 49 340 4.0 6.0 0.00 0.00 0.00 88 1020.2
20260509060010 49 277 3.0 4.0 0.00 0.00 0.00 89 1020.2
20260509055518 49 277 2.0 4.0 0.00 0.00 0.00 89 1020.2
20260509055013 49 265 1.0 4.0 0.00 0.00 0.00 89 1020.3
20260509054513 49 343 1.0 4.0 0.00 0.00 0.00 90 1020.2
20260509054013 48 306 2.0 4.0 0.00 0.00 0.00 90 1020.3
20260509053513 49 294 3.0 3.0 0.00 0.00 0.00 90 1020.3
20260509053019 48 294 0.0 0.0 0.00 0.00 0.00 91 1020.3
20260509052512 48 294 0.0 2.0 0.00 0.00 0.00 91 1020.2
20260509052010 47 294 1.0 2.0 0.00 0.00 0.00 91 1020.1
20260509051510 47 294 0.0 1.0 0.00 0.00 0.00 91 1020.1
20260509051010 47 294 0.0 3.0 0.00 0.00 0.00 91 1020.0
20260509050510 47 294 1.0 3.0 0.00 0.00 0.00 91 1020.0
20260509050016 47 294 2.0 3.0 0.00 0.00 0.00 91 1019.9
20260509045512 47 294 2.0 3.0 0.00 0.00 0.00 91 1020.0